When you browse on this site, cookies collect data to enhance your experience and personalize the content and advertising you see.
Visit our Privacy Policy to learn more. By continuing to use the site, you agree to this use of cookies and data.
  • In Belgium
  • List of Countries
  • For 7 days
  • Water Temperature
  • Weather Map
  • Weather Widgets
  • user-avatar
    Login

    Hourly Weather Djelfa

    Today, 18 September, Wednesday

    Time Temperature Precipitation Wind Pressure Humidity
    00:00 +22°C° 0 mm 3 mps 667 mmHg 63%
    01:00 +22°C° 0.1 mm 5 mps 667 mmHg 60%
    02:00 +22°C° 0.1 mm 6 mps 667 mmHg 58%
    03:00 +22°C° 0.1 mm 8 mps 667 mmHg 55%
    04:00 +22°C° 0.2 mm 6 mps 667 mmHg 53%
    05:00 +23°C° 0.2 mm 4 mps 667 mmHg 50%
    06:00 +25°C° 0 mm 2 mps 667 mmHg 43%
    07:00 +26°C° 0 mm 3 mps 668 mmHg 39%
    08:00 +27°C° 0 mm 4 mps 668 mmHg 36%
    09:00 +28°C° 0 mm 6 mps 668 mmHg 32%
    10:00 +29°C° 0.1 mm 6 mps 669 mmHg 32%
    11:00 +29°C° 0.1 mm 6 mps 669 mmHg 32%
    12:00 +29°C° 0.1 mm 6 mps 669 mmHg 32%
    13:00 +29°C° 0 mm 6 mps 669 mmHg 30%
    14:00 +30°C° 0 mm 6 mps 668 mmHg 29%
    15:00 +30°C° 0 mm 7 mps 668 mmHg 28%
    16:00 +29°C° 0 mm 6 mps 668 mmHg 30%
    17:00 +29°C° 0 mm 5 mps 667 mmHg 31%
    18:00 +28°C° 0 mm 4 mps 667 mmHg 33%
    19:00 +28°C° 0 mm 4 mps 667 mmHg 34%
    20:00 +27°C° 0 mm 5 mps 668 mmHg 35%
    21:00 +27°C° 0 mm 5 mps 668 mmHg 36%
    22:00 +26°C° 0 mm 5 mps 668 mmHg 38%
    23:00 +24°C° 0 mm 6 mps 667 mmHg 40%

    Tomorrow, 19 September, Thursday

    Time Temperature Precipitation Wind Pressure Humidity
    00:00 +24°C° 0 mm 6 mps 667 mmHg 42%
    01:00 +23°C° 0 mm 5 mps 667 mmHg 44%
    02:00 +23°C° 0 mm 4 mps 667 mmHg 45%
    03:00 +22°C° 0 mm 3 mps 666 mmHg 46%
    04:00 +22°C° 0 mm 3 mps 667 mmHg 44%
    05:00 +24°C° 0 mm 3 mps 667 mmHg 42%
    06:00 +24°C° 0 mm 2 mps 667 mmHg 40%
    07:00 +25°C° 0 mm 3 mps 668 mmHg 35%
    08:00 +27°C° 0 mm 4 mps 668 mmHg 30%
    09:00 +29°C° 0 mm 5 mps 669 mmHg 25%
    10:00 +29°C° 0.1 mm 6 mps 669 mmHg 24%
    11:00 +30°C° 0.1 mm 7 mps 669 mmHg 23%
    12:00 +32°C° 0.1 mm 8 mps 669 mmHg 22%
    13:00 +32°C° 0 mm 8 mps 668 mmHg 21%
    14:00 +33°C° 0 mm 8 mps 668 mmHg 20%
    15:00 +33°C° 0 mm 8 mps 668 mmHg 19%
    16:00 +32°C° 0 mm 8 mps 667 mmHg 21%
    17:00 +30°C° 0 mm 7 mps 667 mmHg 23%
    18:00 +29°C° 0 mm 7 mps 667 mmHg 25%
    19:00 +28°C° 0 mm 6 mps 667 mmHg 25%
    20:00 +28°C° 0 mm 6 mps 668 mmHg 25%
    21:00 +28°C° 0 mm 6 mps 668 mmHg 25%
    22:00 +27°C° 0 mm 5 mps 668 mmHg 26%
    23:00 +27°C° 0 mm 5 mps 668 mmHg 27%

    Day after tomorrow, 20 September, Friday

    Time Temperature Precipitation Wind Pressure Humidity
    00:00 +26°C° 0 mm 5 mps 667 mmHg 28%
    01:00 +26°C° 0 mm 5 mps 667 mmHg 29%
    02:00 +25°C° 0 mm 5 mps 667 mmHg 29%
    03:00 +25°C° 0 mm 5 mps 666 mmHg 29%
    04:00 +25°C° 0 mm 4 mps 666 mmHg 30%
    05:00 +24°C° 0 mm 3 mps 666 mmHg 31%
    06:00 +24°C° 0 mm 3 mps 666 mmHg 32%
    07:00 +26°C° 0 mm 4 mps 667 mmHg 28%
    08:00 +28°C° 0 mm 5 mps 668 mmHg 24%
    09:00 +30°C° 0 mm 6 mps 669 mmHg 19%
    10:00 +32°C° 0 mm 6 mps 669 mmHg 19%
    11:00 +32°C° 0 mm 7 mps 668 mmHg 18%
    12:00 +33°C° 0 mm 7 mps 668 mmHg 18%
    13:00 +33°C° 0 mm 7 mps 668 mmHg 18%
    14:00 +34°C° 0 mm 7 mps 668 mmHg 18%
    15:00 +34°C° 0 mm 7 mps 668 mmHg 18%
    16:00 +33°C° 0 mm 6 mps 667 mmHg 19%
    17:00 +32°C° 0 mm 5 mps 667 mmHg 21%
    18:00 +30°C° 0 mm 4 mps 667 mmHg 22%
    19:00 +29°C° 0.1 mm 5 mps 667 mmHg 25%
    20:00 +28°C° 0.1 mm 5 mps 667 mmHg 29%
    21:00 +27°C° 0.1 mm 5 mps 667 mmHg 32%
    22:00 +27°C° 0 mm 5 mps 667 mmHg 33%
    23:00 +26°C° 0 mm 5 mps 666 mmHg 34%

    21 September, Saturday

    Time Temperature Precipitation Wind Pressure Humidity
    00:00 +26°C° 0 mm 6 mps 666 mmHg 35%
    01:00 +26°C° 0 mm 5 mps 666 mmHg 35%
    02:00 +25°C° 0 mm 5 mps 666 mmHg 36%
    03:00 +25°C° 0 mm 5 mps 666 mmHg 36%
    04:00 +25°C° 0 mm 5 mps 666 mmHg 37%
    05:00 +23°C° 0 mm 5 mps 666 mmHg 37%
    06:00 +23°C° 0 mm 4 mps 666 mmHg 38%
    07:00 +26°C° 0 mm 6 mps 667 mmHg 34%
    08:00 +27°C° 0 mm 8 mps 667 mmHg 30%
    09:00 +29°C° 0 mm 10 mps 668 mmHg 26%
    10:00 +31°C° 0 mm 10 mps 668 mmHg 24%
    11:00 +32°C° 0 mm 11 mps 668 mmHg 21%
    12:00 +33°C° 0 mm 11 mps 667 mmHg 19%
    13:00 +34°C° 0 mm 11 mps 667 mmHg 17%
    14:00 +34°C° 0 mm 10 mps 666 mmHg 16%
    15:00 +34°C° 0 mm 9 mps 666 mmHg 15%
    16:00 +33°C° 0 mm 8 mps 666 mmHg 16%
    17:00 +33°C° 0 mm 7 mps 666 mmHg 17%
    18:00 +32°C° 0 mm 5 mps 666 mmHg 18%
    19:00 +30°C° 0 mm 5 mps 666 mmHg 19%
    20:00 +29°C° 0 mm 4 mps 666 mmHg 20%
    21:00 +28°C° 0 mm 4 mps 667 mmHg 21%
    22:00 +28°C° 0 mm 3 mps 666 mmHg 23%
    23:00 +27°C° 0 mm 2 mps 666 mmHg 25%

    22 September, Sunday

    Time Temperature Precipitation Wind Pressure Humidity
    00:00 +26°C° 0 mm 1 mps 666 mmHg 26%
    01:00 +26°C° 0 mm 2 mps 666 mmHg 25%
    02:00 +26°C° 0 mm 3 mps 666 mmHg 24%
    03:00 +26°C° 0 mm 3 mps 665 mmHg 23%
    04:00 +26°C° 0 mm 4 mps 666 mmHg 23%
    05:00 +26°C° 0 mm 5 mps 666 mmHg 23%
    06:00 +26°C° 0 mm 5 mps 666 mmHg 22%
    07:00 +27°C° 0 mm 6 mps 666 mmHg 22%
    08:00 +28°C° 0 mm 7 mps 667 mmHg 21%
    09:00 +29°C° 0 mm 7 mps 668 mmHg 21%
    10:00 +30°C° 0 mm 7 mps 668 mmHg 20%
    11:00 +32°C° 0 mm 8 mps 668 mmHg 20%
    12:00 +33°C° 0 mm 8 mps 668 mmHg 19%
    13:00 +33°C° 0 mm 7 mps 667 mmHg 18%
    14:00 +34°C° 0 mm 6 mps 667 mmHg 16%
    15:00 +35°C° 0 mm 5 mps 667 mmHg 14%
    16:00 +34°C° 0 mm 5 mps 667 mmHg 17%
    17:00 +32°C° 0 mm 5 mps 667 mmHg 19%
    18:00 +30°C° 0 mm 5 mps 667 mmHg 22%
    19:00 +30°C° 0 mm 4 mps 667 mmHg 23%
    20:00 +29°C° 0 mm 4 mps 668 mmHg 24%
    21:00 +29°C° 0 mm 3 mps 668 mmHg 26%
    22:00 +28°C° 0 mm 3 mps 668 mmHg 29%
    23:00 +27°C° 0 mm 3 mps 668 mmHg 33%

    23 September, Monday

    Time Temperature Precipitation Wind Pressure Humidity
    00:00 +26°C° 0 mm 2 mps 668 mmHg 37%
    01:00 +25°C° 0 mm 2 mps 667 mmHg 44%
    02:00 +24°C° 0 mm 2 mps 667 mmHg 51%
    03:00 +23°C° 0 mm 1 mps 667 mmHg 58%
    04:00 +22°C° 0 mm 1 mps 667 mmHg 60%
    05:00 +22°C° 0 mm 1 mps 667 mmHg 61%
    06:00 +22°C° 0 mm 1 mps 667 mmHg 63%
    07:00 +24°C° 0 mm 1 mps 667 mmHg 53%
    08:00 +26°C° 0 mm 1 mps 668 mmHg 43%
    09:00 +28°C° 0 mm 1 mps 669 mmHg 34%
    10:00 +29°C° 0 mm 1 mps 669 mmHg 29%
    11:00 +31°C° 0 mm 2 mps 669 mmHg 24%
    12:00 +34°C° 0 mm 2 mps 670 mmHg 20%
    13:00 +34°C° 0 mm 3 mps 669 mmHg 20%
    14:00 +34°C° 0 mm 3 mps 669 mmHg 20%
    15:00 +34°C° 0 mm 3 mps 668 mmHg 20%
    16:00 +33°C° 0 mm 4 mps 668 mmHg 24%
    17:00 +32°C° 0 mm 4 mps 668 mmHg 28%
    18:00 +30°C° 0 mm 4 mps 668 mmHg 32%
    19:00 +29°C° 0 mm 4 mps 668 mmHg 35%
    20:00 +28°C° 0 mm 3 mps 668 mmHg 38%
    21:00 +27°C° 0 mm 2 mps 669 mmHg 41%
    22:00 +26°C° 0 mm 1 mps 668 mmHg 43%
    23:00 +26°C° 0 mm 1 mps 668 mmHg 45%
    Show more